Time,TemperatureF,DewpointF,PressureIn,WindDirection,WindDirectionDegrees,WindSpeedMPH,WindSpeedGustMPH,Humidity,HourlyPrecipIn,Conditions,Clouds,dailyrainin,SolarRadiationWatts/m^2,SoftwareType,DateUTC
2013-04-02 00:00:00,48.2,35.8,29.97,North,360,2.0,-999.0,62,0.00,,,0.00,0,Wunderground v.1.15,2013-04-02 04:00:00,
2013-04-02 00:02:00,48.1,35.7,29.97,SSE,165,2.0,-999.0,62,0.00,,,0.00,0,Wunderground v.1.15,2013-04-02 04:02:00,
2013-04-02 00:03:00,48.1,35.7,29.97,NE,42,2.0,-999.0,62,0.00,,,0.00,0,Wunderground v.1.15,2013-04-02 04:03:00,
2013-04-02 00:05:00,48.0,35.6,29.97,NNE,24,1.0,-999.0,62,0.00,,,0.00,0,Wunderground v.1.15,2013-04-02 04:05:00,
2013-04-02 00:10:00,47.8,35.4,29.97,North,360,0.0,-999.0,62,0.00,,,0.00,0,Wunderground v.1.15,2013-04-02 04:10:00,
2013-04-02 00:15:00,47.6,35.6,29.98,NNW,338,0.0,-999.0,63,0.00,,,0.00,0,Wunderground v.1.15,2013-04-02 04:15:00,
2013-04-02 00:21:00,47.4,35.4,29.98,North,350,1.0,-999.0,63,0.00,,,0.00,0,Wunderground v.1.15,2013-04-02 04:21:00,
2013-04-02 00:26:00,47.1,35.1,29.98,NNW,340,1.0,-999.0,63,0.00,,,0.00,0,Wunderground v.1.15,2013-04-02 04:26:00,
2013-04-02 00:32:00,46.8,35.3,29.98,NE,44,1.0,-999.0,64,0.00,,,0.00,0,Wunderground v.1.15,2013-04-02 04:32:00,
2013-04-02 00:38:00,46.7,35.2,29.98,NNE,21,2.0,-999.0,64,0.00,,,0.00,0,Wunderground v.1.15,2013-04-02 04:38:00,
2013-04-02 00:43:00,46.5,35.0,29.99,ENE,74,1.0,-999.0,64,0.00,,,0.00,0,Wunderground v.1.15,2013-04-02 04:43:00,
2013-04-02 00:49:00,46.3,34.8,29.98,East,82,1.0,-999.0,64,0.00,,,0.00,0,Wunderground v.1.15,2013-04-02 04:49:00,
2013-04-02 00:55:00,46.1,34.6,29.99,NE,55,1.0,-999.0,64,0.00,,,0.00,0,Wunderground v.1.15,2013-04-02 04:55:00,
2013-04-02 01:00:00,46.0,34.5,29.99,ENE,57,1.0,-999.0,64,0.00,,,0.00,0,Wunderground v.1.15,2013-04-02 05:00:00,
2013-04-02 01:07:00,45.8,34.3,29.99,NE,51,0.0,-999.0,64,0.00,,,0.00,0,Wunderground v.1.15,2013-04-02 05:07:00,
2013-04-02 01:12:00,45.7,34.2,30.00,NNW,348,0.0,-999.0,64,0.00,,,0.00,0,Wunderground v.1.15,2013-04-02 05:12:00,
2013-04-02 01:18:00,45.5,34.0,30.00,NNE,28,0.0,-999.0,64,0.00,,,0.00,0,Wunderground v.1.15,2013-04-02 05:18:00,
2013-04-02 01:24:00,45.3,33.8,30.00,East,95,0.0,-999.0,64,0.00,,,0.00,0,Wunderground v.1.15,2013-04-02 05:24:00,
2013-04-02 01:29:00,45.2,33.7,30.00,North,11,1.0,-999.0,64,0.00,,,0.00,0,Wunderground v.1.15,2013-04-02 05:29:00,
2013-04-02 01:35:00,45.1,33.6,30.00,NNE,18,0.0,-999.0,64,0.00,,,0.00,0,Wunderground v.1.15,2013-04-02 05:35:00,
2013-04-02 01:41:00,45.0,33.5,30.00,NNE,20,0.0,-999.0,64,0.00,,,0.00,0,Wunderground v.1.15,2013-04-02 05:41:00,
2013-04-02 01:47:00,44.8,33.4,30.00,North,355,0.0,-999.0,64,0.00,,,0.00,0,Wunderground v.1.15,2013-04-02 05:47:00,
2013-04-02 01:53:00,44.7,33.3,30.00,ENE,67,0.0,-999.0,64,0.00,,,0.00,0,Wunderground v.1.15,2013-04-02 05:53:00,
2013-04-02 01:58:00,44.5,33.1,30.00,NE,44,0.0,-999.0,64,0.00,,,0.00,0,Wunderground v.1.15,2013-04-02 05:58:00,
2013-04-02 02:03:00,44.3,32.9,30.00,NNE,25,0.0,-999.0,64,0.00,,,0.00,0,Wunderground v.1.15,2013-04-02 06:03:00,
2013-04-02 02:09:00,44.2,32.8,30.00,NE,34,0.0,-999.0,64,0.00,,,0.00,0,Wunderground v.1.15,2013-04-02 06:09:00,
2013-04-02 02:14:00,44.0,32.6,30.00,ESE,111,0.0,-999.0,64,0.00,,,0.00,0,Wunderground v.1.15,2013-04-02 06:14:00,
2013-04-02 02:20:00,43.9,32.5,30.00,ESE,111,0.0,-999.0,64,0.00,,,0.00,0,Wunderground v.1.15,2013-04-02 06:20:00,
2013-04-02 02:26:00,43.8,32.4,30.00,NNE,26,0.0,-999.0,64,0.00,,,0.00,0,Wunderground v.1.15,2013-04-02 06:26:00,
2013-04-02 02:32:00,43.7,31.9,30.00,NNE,17,1.0,-999.0,63,0.00,,,0.00,0,Wunderground v.1.15,2013-04-02 06:32:00,
2013-04-02 02:37:00,43.5,31.7,30.00,North,5,1.0,-999.0,63,0.00,,,0.00,0,Wunderground v.1.15,2013-04-02 06:37:00,
2013-04-02 02:43:00,43.4,31.6,30.00,NNW,338,0.0,-999.0,63,0.00,,,0.00,0,Wunderground v.1.15,2013-04-02 06:43:00,
2013-04-02 02:49:00,43.2,31.4,30.00,ENE,61,0.0,-999.0,63,0.00,,,0.00,0,Wunderground v.1.15,2013-04-02 06:49:00,
2013-04-02 02:54:00,43.1,31.4,29.99,North,5,0.0,-999.0,63,0.00,,,0.00,0,Wunderground v.1.15,2013-04-02 06:54:00,
2013-04-02 02:59:00,43.0,31.3,30.00,ENE,60,1.0,-999.0,63,0.00,,,0.00,0,Wunderground v.1.15,2013-04-02 06:59:00,
2013-04-02 03:05:00,42.9,31.2,30.00,NNE,21,0.0,-999.0,63,0.00,,,0.00,0,Wunderground v.1.15,2013-04-02 07:05:00,
2013-04-02 03:10:00,42.8,31.1,30.00,NE,45,0.0,-999.0,63,0.00,,,0.00,0,Wunderground v.1.15,2013-04-02 07:10:00,
2013-04-02 03:16:00,42.7,31.0,29.99,NW,322,1.0,-999.0,63,0.00,,,0.00,0,Wunderground v.1.15,2013-04-02 07:16:00,
2013-04-02 03:22:00,42.7,31.0,29.99,NNE,26,1.0,-999.0,63,0.00,,,0.00,0,Wunderground v.1.15,2013-04-02 07:22:00,
2013-04-02 03:27:00,42.6,30.5,29.99,NNW,347,1.0,-999.0,62,0.00,,,0.00,0,Wunderground v.1.15,2013-04-02 07:27:00,
2013-04-02 03:32:00,42.6,30.5,30.00,North,360,1.0,-999.0,62,0.00,,,0.00,0,Wunderground v.1.15,2013-04-02 07:32:00,
2013-04-02 03:38:00,42.5,30.4,30.00,North,355,1.0,-999.0,62,0.00,,,0.00,0,Wunderground v.1.15,2013-04-02 07:38:00,
2013-04-02 03:43:00,42.4,30.3,30.00,North,9,1.0,-999.0,62,0.00,,,0.00,0,Wunderground v.1.15,2013-04-02 07:43:00,
2013-04-02 03:48:00,42.4,30.3,30.00,NE,40,1.0,-999.0,62,0.00,,,0.00,0,Wunderground v.1.15,2013-04-02 07:48:00,
2013-04-02 03:54:00,42.3,30.2,30.00,North,5,0.0,-999.0,62,0.00,,,0.00,0,Wunderground v.1.15,2013-04-02 07:54:00,
2013-04-02 03:59:00,42.3,30.2,30.00,WNW,288,0.0,-999.0,62,0.00,,,0.00,0,Wunderground v.1.15,2013-04-02 07:59:00,
2013-04-02 04:04:00,42.2,30.1,30.01,WNW,288,0.0,-999.0,62,0.00,,,0.00,0,Wunderground v.1.15,2013-04-02 08:04:00,
2013-04-02 04:10:00,42.0,29.9,30.01,WNW,288,0.0,-999.0,62,0.00,,,0.00,0,Wunderground v.1.15,2013-04-02 08:10:00,
2013-04-02 04:16:00,41.9,29.8,30.01,WNW,288,0.0,-999.0,62,0.00,,,0.00,0,Wunderground v.1.15,2013-04-02 08:16:00,
2013-04-02 04:22:00,41.7,29.6,30.01,WNW,288,0.0,-999.0,62,0.00,,,0.00,0,Wunderground v.1.15,2013-04-02 08:22:00,
2013-04-02 04:27:00,41.5,30.2,30.01,WNW,288,0.0,-999.0,64,0.00,,,0.00,0,Wunderground v.1.15,2013-04-02 08:27:00,
2013-04-02 04:33:00,41.3,29.6,30.01,WNW,288,0.0,-999.0,63,0.00,,,0.00,0,Wunderground v.1.15,2013-04-02 08:33:00,
2013-04-02 04:38:00,41.1,29.5,30.01,WNW,288,0.0,-999.0,63,0.00,,,0.00,0,Wunderground v.1.15,2013-04-02 08:38:00,
2013-04-02 04:43:00,40.9,29.7,30.02,WNW,288,0.0,-999.0,64,0.00,,,0.00,0,Wunderground v.1.15,2013-04-02 08:43:00,
2013-04-02 04:49:00,40.7,29.5,30.02,WNW,288,0.0,-999.0,64,0.00,,,0.00,0,Wunderground v.1.15,2013-04-02 08:49:00,
2013-04-02 04:54:00,40.5,29.3,30.03,WNW,288,0.0,-999.0,64,0.00,,,0.00,0,Wunderground v.1.15,2013-04-02 08:54:00,
2013-04-02 05:00:00,40.2,29.4,30.03,WNW,288,0.0,-999.0,65,0.00,,,0.00,0,Wunderground v.1.15,2013-04-02 09:00:00,
2013-04-02 05:06:00,39.9,29.1,30.03,WNW,288,0.0,-999.0,65,0.00,,,0.00,0,Wunderground v.1.15,2013-04-02 09:06:00,
2013-04-02 05:12:00,39.7,29.3,30.03,WNW,288,0.0,-999.0,66,0.00,,,0.00,0,Wunderground v.1.15,2013-04-02 09:12:00,
2013-04-02 05:17:00,39.3,29.3,30.03,WNW,288,0.0,-999.0,67,0.00,,,0.00,0,Wunderground v.1.15,2013-04-02 09:17:00,
2013-04-02 05:23:00,39.0,29.0,30.04,WNW,288,0.0,-999.0,67,0.00,,,0.00,0,Wunderground v.1.15,2013-04-02 09:23:00,
2013-04-02 05:28:00,38.8,29.1,30.04,WNW,288,0.0,-999.0,68,0.00,,,0.00,0,Wunderground v.1.15,2013-04-02 09:28:00,
2013-04-02 05:33:00,38.5,28.9,30.05,WNW,288,0.0,-999.0,68,0.00,,,0.00,0,Wunderground v.1.15,2013-04-02 09:33:00,
2013-04-02 05:39:00,38.2,28.9,30.05,WNW,288,0.0,-999.0,69,0.00,,,0.00,0,Wunderground v.1.15,2013-04-02 09:39:00,
2013-04-02 05:44:00,37.9,29.0,30.05,WNW,288,0.0,-999.0,70,0.00,,,0.00,0,Wunderground v.1.15,2013-04-02 09:44:00,
2013-04-02 05:50:00,37.7,28.8,30.05,WNW,288,0.0,-999.0,70,0.00,,,0.00,0,Wunderground v.1.15,2013-04-02 09:50:00,
2013-04-02 05:55:00,37.4,28.9,30.05,WNW,288,0.0,-999.0,71,0.00,,,0.00,0,Wunderground v.1.15,2013-04-02 09:55:00,
2013-04-02 06:00:00,37.2,28.7,30.05,WNW,288,0.0,-999.0,71,0.00,,,0.00,0,Wunderground v.1.15,2013-04-02 10:00:00,
2013-04-02 06:07:00,37.0,28.8,30.05,WNW,288,0.0,-999.0,72,0.00,,,0.00,0,Wunderground v.1.15,2013-04-02 10:07:00,
2013-04-02 06:12:00,36.8,28.6,30.05,WNW,288,0.0,-999.0,72,0.00,,,0.00,0,Wunderground v.1.15,2013-04-02 10:12:00,
2013-04-02 06:18:00,36.6,28.4,30.06,WNW,288,0.0,-999.0,72,0.00,,,0.00,0,Wunderground v.1.15,2013-04-02 10:18:00,
2013-04-02 06:24:00,36.4,28.6,30.06,WNW,288,0.0,-999.0,73,0.00,,,0.00,0,Wunderground v.1.15,2013-04-02 10:24:00,
2013-04-02 06:29:00,36.3,28.5,30.06,WNW,288,0.0,-999.0,73,0.00,,,0.00,0,Wunderground v.1.15,2013-04-02 10:29:00,
2013-04-02 06:35:00,36.1,28.3,30.07,WNW,288,0.0,-999.0,73,0.00,,,0.00,0,Wunderground v.1.15,2013-04-02 10:35:00,
2013-04-02 06:40:00,36.0,28.5,30.07,WNW,288,0.0,-999.0,74,0.00,,,0.00,0,Wunderground v.1.15,2013-04-02 10:40:00,
2013-04-02 06:45:00,35.9,28.4,30.07,WNW,288,0.0,-999.0,74,0.00,,,0.00,0,Wunderground v.1.15,2013-04-02 10:45:00,
2013-04-02 06:51:00,35.7,28.6,30.08,WNW,288,0.0,-999.0,75,0.00,,,0.00,0,Wunderground v.1.15,2013-04-02 10:51:00,
2013-04-02 06:57:00,35.5,28.4,30.08,WNW,288,0.0,-999.0,75,0.00,,,0.00,0,Wunderground v.1.15,2013-04-02 10:57:00,
2013-04-02 07:03:00,35.4,28.3,30.09,WNW,288,0.0,-999.0,75,0.00,,,0.00,0,Wunderground v.1.15,2013-04-02 11:03:00,
2013-04-02 07:08:00,35.2,28.1,30.10,WNW,288,0.0,-999.0,75,0.00,,,0.00,5,Wunderground v.1.15,2013-04-02 11:08:00,
2013-04-02 07:13:00,35.1,28.3,30.10,WNW,288,0.0,-999.0,76,0.00,,,0.00,11,Wunderground v.1.15,2013-04-02 11:13:00,
2013-04-02 07:19:00,34.9,28.1,30.10,WNW,288,0.0,-999.0,76,0.00,,,0.00,12,Wunderground v.1.15,2013-04-02 11:19:00,
2013-04-02 07:24:00,34.8,28.0,30.11,WNW,288,0.0,-999.0,76,0.00,,,0.00,16,Wunderground v.1.15,2013-04-02 11:24:00,
2013-04-02 07:29:00,34.6,28.1,30.11,WNW,288,0.0,-999.0,77,0.00,,,0.00,19,Wunderground v.1.15,2013-04-02 11:29:00,
2013-04-02 07:34:00,34.5,28.0,30.11,WNW,288,0.0,-999.0,77,0.00,,,0.00,23,Wunderground v.1.15,2013-04-02 11:34:00,
2013-04-02 07:40:00,34.4,27.9,30.12,WNW,288,0.0,-999.0,77,0.00,,,0.00,26,Wunderground v.1.15,2013-04-02 11:40:00,
2013-04-02 07:45:00,34.4,28.2,30.12,WNW,288,0.0,-999.0,78,0.00,,,0.00,32,Wunderground v.1.15,2013-04-02 11:45:00,
2013-04-02 07:50:00,34.4,28.2,30.12,WNW,288,0.0,-999.0,78,0.00,,,0.00,32,Wunderground v.1.15,2013-04-02 11:50:00,
2013-04-02 07:56:00,34.4,28.2,30.12,WNW,288,0.0,-999.0,78,0.00,,,0.00,33,Wunderground v.1.15,2013-04-02 11:56:00,
2013-04-02 08:01:00,34.4,28.6,30.13,WNW,288,0.0,-999.0,79,0.00,,,0.00,121,Wunderground v.1.15,2013-04-02 12:01:00,
2013-04-02 08:06:00,34.4,28.9,30.13,West,281,0.0,-999.0,80,0.00,,,0.00,223,Wunderground v.1.15,2013-04-02 12:06:00,
2013-04-02 08:11:00,34.7,29.2,30.13,West,281,0.0,-999.0,80,0.00,,,0.00,246,Wunderground v.1.15,2013-04-02 12:11:00,
2013-04-02 08:17:00,35.2,29.6,30.14,West,281,0.0,-999.0,80,0.00,,,0.00,271,Wunderground v.1.15,2013-04-02 12:17:00,
2013-04-02 08:22:00,35.9,29.7,30.14,NNW,331,0.0,-999.0,78,0.00,,,0.00,290,Wunderground v.1.15,2013-04-02 12:22:00,
2013-04-02 08:28:00,37.3,29.4,30.14,North,5,0.0,-999.0,73,0.00,,,0.00,311,Wunderground v.1.15,2013-04-02 12:28:00,
2013-04-02 08:33:00,38.6,28.9,30.14,NNE,30,1.0,-999.0,68,0.00,,,0.00,290,Wunderground v.1.15,2013-04-02 12:33:00,
2013-04-02 08:38:00,39.8,28.2,30.14,North,5,2.0,-999.0,63,0.00,,,0.00,239,Wunderground v.1.15,2013-04-02 12:38:00,
2013-04-02 08:44:00,40.6,28.2,30.14,NNE,18,2.0,-999.0,61,0.00,,,0.00,156,Wunderground v.1.15,2013-04-02 12:44:00,
2013-04-02 08:50:00,41.2,27.9,30.14,NNW,346,1.0,-999.0,59,0.00,,,0.00,287,Wunderground v.1.15,2013-04-02 12:50:00,
2013-04-02 08:56:00,41.7,28.0,30.14,NW,319,3.0,-999.0,58,0.00,,,0.00,257,Wunderground v.1.15,2013-04-02 12:56:00,
2013-04-02 09:02:00,42.0,27.4,30.14,NNE,19,2.0,-999.0,56,0.00,,,0.00,258,Wunderground v.1.15,2013-04-02 13:02:00,
2013-04-02 09:07:00,42.2,27.6,30.14,NE,53,2.0,-999.0,56,0.00,,,0.00,353,Wunderground v.1.15,2013-04-02 13:07:00,
2013-04-02 09:12:00,42.5,27.5,30.14,North,9,2.0,-999.0,55,0.00,,,0.00,355,Wunderground v.1.15,2013-04-02 13:12:00,
2013-04-02 09:17:00,43.0,27.9,30.14,NW,316,2.0,-999.0,55,0.00,,,0.00,336,Wunderground v.1.15,2013-04-02 13:17:00,
2013-04-02 09:23:00,43.1,27.6,30.14,North,350,2.0,-999.0,54,0.00,,,0.00,403,Wunderground v.1.15,2013-04-02 13:23:00,
2013-04-02 09:29:00,43.3,27.8,30.14,NW,325,3.0,-999.0,54,0.00,,,0.00,417,Wunderground v.1.15,2013-04-02 13:29:00,
2013-04-02 09:34:00,43.6,28.0,30.14,NW,311,2.0,-999.0,54,0.00,,,0.00,316,Wunderground v.1.15,2013-04-02 13:34:00,
2013-04-02 09:39:00,44.5,28.9,30.14,North,5,1.0,-999.0,54,0.00,,,0.00,457,Wunderground v.1.15,2013-04-02 13:39:00,
2013-04-02 09:45:00,44.4,28.3,30.14,NNE,17,1.0,-999.0,53,0.00,,,0.00,483,Wunderground v.1.15,2013-04-02 13:45:00,
2013-04-02 09:51:00,44.9,28.3,30.14,WNW,293,1.0,-999.0,52,0.00,,,0.00,615,Wunderground v.1.15,2013-04-02 13:51:00,
2013-04-02 09:56:00,45.0,28.4,30.14,ENE,77,1.0,-999.0,52,0.00,,,0.00,638,Wunderground v.1.15,2013-04-02 13:56:00,
2013-04-02 10:02:00,45.4,29.3,30.14,NNE,30,1.0,-999.0,53,0.00,,,0.00,661,Wunderground v.1.15,2013-04-02 14:02:00,
2013-04-02 10:07:00,46.1,29.4,30.14,North,9,1.0,-999.0,52,0.00,,,0.00,677,Wunderground v.1.15,2013-04-02 14:07:00,
2013-04-02 10:13:00,46.2,28.6,30.14,NE,45,1.0,-999.0,50,0.00,,,0.00,689,Wunderground v.1.15,2013-04-02 14:13:00,
2013-04-02 10:18:00,46.0,28.4,30.14,North,11,2.0,-999.0,50,0.00,,,0.00,703,Wunderground v.1.15,2013-04-02 14:18:00,
2013-04-02 10:23:00,46.9,29.2,30.14,WNW,290,2.0,-999.0,50,0.00,,,0.00,722,Wunderground v.1.15,2013-04-02 14:23:00,
2013-04-02 10:29:00,46.6,28.9,30.14,North,355,1.0,-999.0,50,0.00,,,0.00,738,Wunderground v.1.15,2013-04-02 14:29:00,
2013-04-02 10:34:00,46.5,27.8,30.14,NE,51,2.0,-999.0,48,0.00,,,0.00,751,Wunderground v.1.15,2013-04-02 14:34:00,
2013-04-02 10:40:00,47.0,28.3,30.14,NNW,340,3.0,-999.0,48,0.00,,,0.00,765,Wunderground v.1.15,2013-04-02 14:40:00,
2013-04-02 10:45:00,47.1,28.9,30.14,NNW,342,4.0,-999.0,49,0.00,,,0.00,775,Wunderground v.1.15,2013-04-02 14:45:00,
2013-04-02 10:50:00,47.3,29.6,30.14,NNE,30,4.0,-999.0,50,0.00,,,0.00,789,Wunderground v.1.15,2013-04-02 14:50:00,
2013-04-02 10:55:00,47.3,29.6,30.14,NNE,25,4.0,-999.0,50,0.00,,,0.00,803,Wunderground v.1.15,2013-04-02 14:55:00,
2013-04-02 11:02:00,47.4,28.7,30.14,WNW,298,4.0,-999.0,48,0.00,,,0.00,814,Wunderground v.1.15,2013-04-02 15:02:00,
2013-04-02 11:08:00,48.5,28.6,30.15,SW,221,4.0,-999.0,46,0.00,,,0.00,831,Wunderground v.1.15,2013-04-02 15:08:00,
2013-04-02 11:14:00,49.9,30.5,30.14,WSW,257,4.0,-999.0,47,0.00,,,0.00,842,Wunderground v.1.15,2013-04-02 15:14:00,
2013-04-02 11:19:00,49.7,29.7,30.14,West,261,3.0,-999.0,46,0.00,,,0.00,846,Wunderground v.1.15,2013-04-02 15:19:00,
2013-04-02 11:24:00,49.7,30.3,30.14,NNW,337,4.0,-999.0,47,0.00,,,0.00,860,Wunderground v.1.15,2013-04-02 15:24:00,
2013-04-02 11:30:00,49.0,28.6,30.14,NW,314,3.0,-999.0,45,0.00,,,0.00,867,Wunderground v.1.15,2013-04-02 15:30:00,
2013-04-02 11:35:00,49.5,30.6,30.14,SE,132,3.0,-999.0,48,0.00,,,0.00,877,Wunderground v.1.15,2013-04-02 15:35:00,
2013-04-02 11:41:00,49.3,29.4,30.14,West,281,3.0,-999.0,46,0.00,,,0.00,882,Wunderground v.1.15,2013-04-02 15:41:00,
2013-04-02 11:46:00,49.8,29.8,30.14,North,355,4.0,-999.0,46,0.00,,,0.00,888,Wunderground v.1.15,2013-04-02 15:46:00,
2013-04-02 11:52:00,49.8,28.7,30.14,WNW,294,3.0,-999.0,44,0.00,,,0.00,909,Wunderground v.1.15,2013-04-02 15:52:00,
2013-04-02 11:58:00,50.1,30.1,30.14,West,263,3.0,-999.0,46,0.00,,,0.00,911,Wunderground v.1.15,2013-04-02 15:58:00,
2013-04-02 12:04:00,50.9,29.7,30.14,North,360,3.0,-999.0,44,0.00,,,0.00,911,Wunderground v.1.15,2013-04-02 16:04:00,
2013-04-02 12:10:00,51.3,30.7,30.13,WNW,292,5.0,-999.0,45,0.00,,,0.00,923,Wunderground v.1.15,2013-04-02 16:10:00,
2013-04-02 12:15:00,51.5,29.7,30.13,West,259,4.0,-999.0,43,0.00,,,0.00,921,Wunderground v.1.15,2013-04-02 16:15:00,
2013-04-02 12:20:00,53.2,32.4,30.13,West,271,2.0,-999.0,45,0.00,,,0.00,926,Wunderground v.1.15,2013-04-02 16:20:00,
2013-04-02 12:26:00,52.8,27.9,30.12,NW,321,3.0,-999.0,38,0.00,,,0.00,930,Wunderground v.1.15,2013-04-02 16:26:00,
2013-04-02 12:32:00,52.2,26.7,30.13,WSW,242,7.0,-999.0,37,0.00,,,0.00,937,Wunderground v.1.15,2013-04-02 16:32:00,
2013-04-02 12:38:00,53.2,27.6,30.12,NNW,336,6.0,-999.0,37,0.00,,,0.00,939,Wunderground v.1.15,2013-04-02 16:38:00,
2013-04-02 12:44:00,53.3,27.0,30.12,WNW,292,3.0,-999.0,36,0.00,,,0.00,939,Wunderground v.1.15,2013-04-02 16:44:00,
2013-04-02 12:49:00,53.5,27.8,30.12,NNE,29,3.0,-999.0,37,0.00,,,0.00,940,Wunderground v.1.15,2013-04-02 16:49:00,
2013-04-02 12:54:00,52.4,26.9,30.11,North,9,4.0,-999.0,37,0.00,,,0.00,940,Wunderground v.1.15,2013-04-02 16:54:00,
2013-04-02 13:00:00,52.7,27.8,30.11,WSW,256,5.0,-999.0,38,0.00,,,0.00,942,Wunderground v.1.15,2013-04-02 17:00:00,
2013-04-02 13:05:00,53.5,28.5,30.11,NW,323,5.0,-999.0,38,0.00,,,0.00,942,Wunderground v.1.15,2013-04-02 17:05:00,
2013-04-02 13:11:00,53.4,27.1,30.11,WSW,258,5.0,-999.0,36,0.00,,,0.00,940,Wunderground v.1.15,2013-04-02 17:11:00,
2013-04-02 13:17:00,53.4,27.1,30.11,NW,326,6.0,-999.0,36,0.00,,,0.00,939,Wunderground v.1.15,2013-04-02 17:17:00,
2013-04-02 13:22:00,53.9,27.5,30.11,WSW,257,5.0,-999.0,36,0.00,,,0.00,935,Wunderground v.1.15,2013-04-02 17:22:00,
2013-04-02 13:28:00,53.5,26.5,30.10,WNW,286,4.0,-999.0,35,0.00,,,0.00,933,Wunderground v.1.15,2013-04-02 17:28:00,
2013-04-02 13:33:00,53.7,27.4,30.11,NNW,327,4.0,-999.0,36,0.00,,,0.00,930,Wunderground v.1.15,2013-04-02 17:33:00,
2013-04-02 13:38:00,53.2,26.9,30.10,South,169,5.0,-999.0,36,0.00,,,0.00,926,Wunderground v.1.15,2013-04-02 17:38:00,
2013-04-02 13:45:00,54.2,27.1,30.10,NW,312,6.0,-999.0,35,0.00,,,0.00,921,Wunderground v.1.15,2013-04-02 17:45:00,
2013-04-02 13:50:00,53.6,25.9,30.10,NW,306,6.0,-999.0,34,0.00,,,0.00,911,Wunderground v.1.15,2013-04-02 17:50:00,
2013-04-02 13:55:00,54.2,26.4,30.10,WSW,252,5.0,-999.0,34,0.00,,,0.00,911,Wunderground v.1.15,2013-04-02 17:55:00,
2013-04-02 14:01:00,53.9,26.8,30.09,NNW,341,6.0,-999.0,35,0.00,,,0.00,902,Wunderground v.1.15,2013-04-02 18:01:00,
2013-04-02 14:06:00,53.4,26.4,30.09,WNW,294,7.0,-999.0,35,0.00,,,0.00,893,Wunderground v.1.15,2013-04-02 18:06:00,
2013-04-02 14:12:00,55.0,27.1,30.09,WSW,257,5.0,-999.0,34,0.00,,,0.00,888,Wunderground v.1.15,2013-04-02 18:12:00,
2013-04-02 14:17:00,54.6,26.8,30.09,WSW,258,5.0,-999.0,34,0.00,,,0.00,881,Wunderground v.1.15,2013-04-02 18:17:00,
2013-04-02 14:22:00,55.3,27.4,30.09,NW,306,7.0,-999.0,34,0.00,,,0.00,872,Wunderground v.1.15,2013-04-02 18:22:00,
2013-04-02 14:28:00,54.8,26.2,30.09,West,263,7.0,-999.0,33,0.00,,,0.00,861,Wunderground v.1.15,2013-04-02 18:28:00,
2013-04-02 14:34:00,54.9,26.3,30.08,NNW,336,6.0,-999.0,33,0.00,,,0.00,853,Wunderground v.1.15,2013-04-02 18:34:00,
2013-04-02 14:39:00,54.7,26.8,30.08,WNW,293,6.0,-999.0,34,0.00,,,0.00,844,Wunderground v.1.15,2013-04-02 18:39:00,
2013-04-02 14:45:00,55.5,28.3,30.08,NW,319,6.0,-999.0,35,0.00,,,0.00,831,Wunderground v.1.15,2013-04-02 18:45:00,
2013-04-02 14:51:00,55.3,27.4,30.08,NW,306,5.0,-999.0,34,0.00,,,0.00,821,Wunderground v.1.15,2013-04-02 18:51:00,
2013-04-02 14:57:00,55.0,27.1,30.07,NNE,22,5.0,-999.0,34,0.00,,,0.00,807,Wunderground v.1.15,2013-04-02 18:57:00,
2013-04-02 15:04:00,55.2,28.7,30.07,NE,38,5.0,-999.0,36,0.00,,,0.00,795,Wunderground v.1.15,2013-04-02 19:04:00,
2013-04-02 15:10:00,55.7,27.7,30.06,NW,314,5.0,-999.0,34,0.00,,,0.00,779,Wunderground v.1.15,2013-04-02 19:10:00,
2013-04-02 15:15:00,55.7,27.7,30.06,West,273,6.0,-999.0,34,0.00,,,0.00,765,Wunderground v.1.15,2013-04-02 19:15:00,
2013-04-02 15:20:00,55.8,27.1,30.06,ENE,59,6.0,-999.0,33,0.00,,,0.00,751,Wunderground v.1.15,2013-04-02 19:20:00,
2013-04-02 15:26:00,56.0,28.0,30.06,WNW,298,4.0,-999.0,34,0.00,,,0.00,737,Wunderground v.1.15,2013-04-02 19:26:00,
2013-04-02 15:31:00,56.4,27.6,30.06,West,271,4.0,-999.0,33,0.00,,,0.00,726,Wunderground v.1.15,2013-04-02 19:31:00,
2013-04-02 15:36:00,55.9,27.2,30.06,NNW,332,6.0,-999.0,33,0.00,,,0.00,712,Wunderground v.1.15,2013-04-02 19:36:00,
2013-04-02 15:43:00,56.4,28.3,30.05,WSW,252,6.0,-999.0,34,0.00,,,0.00,694,Wunderground v.1.15,2013-04-02 19:43:00,
2013-04-02 15:49:00,56.8,28.0,30.05,NW,323,3.0,-999.0,33,0.00,,,0.00,675,Wunderground v.1.15,2013-04-02 19:49:00,
2013-04-02 15:55:00,56.5,27.7,30.05,West,268,3.0,-999.0,33,0.00,,,0.00,654,Wunderground v.1.15,2013-04-02 19:55:00,
2013-04-02 16:00:00,56.4,28.3,30.05,North,9,3.0,-999.0,34,0.00,,,0.00,642,Wunderground v.1.15,2013-04-02 20:00:00,
2013-04-02 16:07:00,56.9,28.8,30.05,West,261,3.0,-999.0,34,0.00,,,0.00,622,Wunderground v.1.15,2013-04-02 20:07:00,
2013-04-02 16:12:00,57.9,28.9,30.05,WNW,301,2.0,-999.0,33,0.00,,,0.00,608,Wunderground v.1.15,2013-04-02 20:12:00,
2013-04-02 16:18:00,57.4,27.7,30.05,WNW,287,4.0,-999.0,32,0.00,,,0.00,589,Wunderground v.1.15,2013-04-02 20:18:00,
2013-04-02 16:23:00,57.5,28.6,30.05,West,274,5.0,-999.0,33,0.00,,,0.00,570,Wunderground v.1.15,2013-04-02 20:23:00,
2013-04-02 16:29:00,57.6,27.9,30.05,West,273,5.0,-999.0,32,0.00,,,0.00,552,Wunderground v.1.15,2013-04-02 20:29:00,
2013-04-02 16:34:00,57.5,27.8,30.05,WSW,237,4.0,-999.0,32,0.00,,,0.00,534,Wunderground v.1.15,2013-04-02 20:34:00,
2013-04-02 16:40:00,58.0,28.3,30.05,SW,226,4.0,-999.0,32,0.00,,,0.00,515,Wunderground v.1.15,2013-04-02 20:40:00,
2013-04-02 16:45:00,57.9,28.9,30.05,WNW,293,3.0,-999.0,33,0.00,,,0.00,497,Wunderground v.1.15,2013-04-02 20:45:00,
2013-04-02 16:53:00,59.0,29.2,30.05,West,279,2.0,-999.0,32,0.00,,,0.00,473,Wunderground v.1.15,2013-04-02 20:53:00,
2013-04-02 16:59:00,58.4,28.6,30.05,West,259,3.0,-999.0,32,0.00,,,0.00,452,Wunderground v.1.15,2013-04-02 20:59:00,
2013-04-02 17:04:00,58.6,28.0,30.04,West,271,4.0,-999.0,31,0.00,,,0.00,434,Wunderground v.1.15,2013-04-02 21:04:00,
2013-04-02 17:10:00,58.0,27.5,30.05,NW,324,7.0,-999.0,31,0.00,,,0.00,410,Wunderground v.1.15,2013-04-02 21:10:00,
2013-04-02 17:17:00,58.1,27.6,30.04,WSW,246,5.0,-999.0,31,0.00,,,0.00,390,Wunderground v.1.15,2013-04-02 21:17:00,
2013-04-02 17:22:00,58.8,28.2,30.04,NNW,334,3.0,-999.0,31,0.00,,,0.00,373,Wunderground v.1.15,2013-04-02 21:22:00,
2013-04-02 17:28:00,58.5,27.9,30.04,WSW,247,3.0,-999.0,31,0.00,,,0.00,350,Wunderground v.1.15,2013-04-02 21:28:00,
2013-04-02 17:34:00,57.9,27.4,30.04,NNW,342,3.0,-999.0,31,0.00,,,0.00,329,Wunderground v.1.15,2013-04-02 21:34:00,
2013-04-02 17:40:00,58.5,27.9,30.04,West,268,2.0,-999.0,31,0.00,,,0.00,306,Wunderground v.1.15,2013-04-02 21:40:00,
2013-04-02 17:46:00,59.0,28.4,30.04,NW,309,3.0,-999.0,31,0.00,,,0.00,287,Wunderground v.1.15,2013-04-02 21:46:00,
2013-04-02 17:52:00,58.8,28.2,30.04,WNW,288,3.0,-999.0,31,0.00,,,0.00,262,Wunderground v.1.15,2013-04-02 21:52:00,
2013-04-02 17:58:00,58.5,27.9,30.04,NW,323,2.0,-999.0,31,0.00,,,0.00,234,Wunderground v.1.15,2013-04-02 21:58:00,
2013-04-02 18:03:00,58.4,28.6,30.04,NNW,340,2.0,-999.0,32,0.00,,,0.00,202,Wunderground v.1.15,2013-04-02 22:03:00,
2013-04-02 18:09:00,58.4,27.9,30.04,WNW,297,3.0,-999.0,31,0.00,,,0.00,178,Wunderground v.1.15,2013-04-02 22:09:00,
2013-04-02 18:15:00,58.1,27.6,30.04,NW,307,2.0,-999.0,31,0.00,,,0.00,155,Wunderground v.1.15,2013-04-02 22:15:00,
2013-04-02 18:20:00,58.7,28.9,30.04,SW,215,1.0,-999.0,32,0.00,,,0.00,132,Wunderground v.1.15,2013-04-02 22:20:00,
2013-04-02 18:26:00,59.0,29.2,30.04,NNW,329,0.0,-999.0,32,0.00,,,0.00,105,Wunderground v.1.15,2013-04-02 22:26:00,
2013-04-02 18:31:00,59.0,27.6,30.05,West,281,1.0,-999.0,30,0.00,,,0.00,84,Wunderground v.1.15,2013-04-02 22:31:00,
2013-04-02 18:37:00,58.6,27.2,30.05,North,355,2.0,-999.0,30,0.00,,,0.00,60,Wunderground v.1.15,2013-04-02 22:37:00,
2013-04-02 18:43:00,58.4,27.1,30.05,NNW,347,1.0,-999.0,30,0.00,,,0.00,32,Wunderground v.1.15,2013-04-02 22:43:00,
2013-04-02 18:49:00,57.8,27.3,30.05,NNW,330,1.0,-999.0,31,0.00,,,0.00,30,Wunderground v.1.15,2013-04-02 22:49:00,
2013-04-02 18:54:00,57.3,27.7,30.05,NNW,330,0.0,-999.0,32,0.00,,,0.00,28,Wunderground v.1.15,2013-04-02 22:54:00,
2013-04-02 19:00:00,57.3,29.1,30.05,NNW,330,0.0,-999.0,34,0.00,,,0.00,28,Wunderground v.1.15,2013-04-02 23:00:00,
2013-04-02 19:05:00,57.3,28.4,30.06,NNW,330,0.0,-999.0,33,0.00,,,0.00,39,Wunderground v.1.15,2013-04-02 23:05:00,
2013-04-02 19:11:00,57.2,29.1,30.05,NNW,330,0.0,-999.0,34,0.00,,,0.00,25,Wunderground v.1.15,2013-04-02 23:11:00,
2013-04-02 19:18:00,56.9,30.2,30.06,NNW,330,0.0,-999.0,36,0.00,,,0.00,21,Wunderground v.1.15,2013-04-02 23:18:00,
2013-04-02 19:24:00,56.8,29.4,30.06,NNW,330,0.0,-999.0,35,0.00,,,0.00,16,Wunderground v.1.15,2013-04-02 23:24:00,
2013-04-02 19:29:00,56.6,29.2,30.06,NNW,330,0.0,-999.0,35,0.00,,,0.00,11,Wunderground v.1.15,2013-04-02 23:29:00,
2013-04-02 19:34:00,56.3,29.7,30.06,NNW,330,0.0,-999.0,36,0.00,,,0.00,7,Wunderground v.1.15,2013-04-02 23:34:00,
2013-04-02 19:40:00,55.9,30.0,30.06,NNW,330,0.0,-999.0,37,0.00,,,0.00,0,Wunderground v.1.15,2013-04-02 23:40:00,
2013-04-02 19:45:00,55.6,29.7,30.06,NNW,330,0.0,-999.0,37,0.00,,,0.00,0,Wunderground v.1.15,2013-04-02 23:45:00,
2013-04-02 19:51:00,55.3,30.1,30.06,NNW,330,0.0,-999.0,38,0.00,,,0.00,0,Wunderground v.1.15,2013-04-02 23:51:00,
2013-04-02 19:57:00,54.9,29.7,30.06,NNW,330,0.0,-999.0,38,0.00,,,0.00,0,Wunderground v.1.15,2013-04-02 23:57:00,
2013-04-02 20:03:00,54.5,29.4,30.07,NNW,330,0.0,-999.0,38,0.00,,,0.00,0,Wunderground v.1.15,2013-04-03 00:03:00,
2013-04-02 20:08:00,54.2,29.8,30.07,NNW,330,0.0,-999.0,39,0.00,,,0.00,0,Wunderground v.1.15,2013-04-03 00:08:00,
2013-04-02 20:13:00,53.9,28.2,30.07,NNW,330,0.0,-999.0,37,0.00,,,0.00,0,Wunderground v.1.15,2013-04-03 00:13:00,
2013-04-02 20:19:00,53.5,28.5,30.07,NNW,330,0.0,-999.0,38,0.00,,,0.00,0,Wunderground v.1.15,2013-04-03 00:19:00,
2013-04-02 20:24:00,53.3,28.9,30.07,NNW,330,0.0,-999.0,39,0.00,,,0.00,0,Wunderground v.1.15,2013-04-03 00:24:00,
2013-04-02 20:30:00,53.0,27.4,30.07,NNW,330,0.0,-999.0,37,0.00,,,0.00,0,Wunderground v.1.15,2013-04-03 00:30:00,
2013-04-02 20:36:00,52.7,27.1,30.07,NNW,348,1.0,-999.0,37,0.00,,,0.00,0,Wunderground v.1.15,2013-04-03 00:36:00,
2013-04-02 20:42:00,52.6,26.4,30.07,NNE,17,1.0,-999.0,36,0.00,,,0.00,0,Wunderground v.1.15,2013-04-03 00:42:00,
2013-04-02 20:48:00,52.4,26.2,30.08,NNE,17,0.0,-999.0,36,0.00,,,0.00,0,Wunderground v.1.15,2013-04-03 00:48:00,
2013-04-02 20:54:00,52.3,26.8,30.08,NNE,17,0.0,-999.0,37,0.00,,,0.00,0,Wunderground v.1.15,2013-04-03 00:54:00,
2013-04-02 20:59:00,52.3,26.1,30.08,NNE,17,0.0,-999.0,36,0.00,,,0.00,0,Wunderground v.1.15,2013-04-03 00:59:00,
2013-04-02 21:05:00,52.2,26.7,30.08,NNE,17,0.0,-999.0,37,0.00,,,0.00,0,Wunderground v.1.15,2013-04-03 01:05:00,
2013-04-02 21:11:00,52.2,26.7,30.09,NNE,17,0.0,-999.0,37,0.00,,,0.00,0,Wunderground v.1.15,2013-04-03 01:11:00,
2013-04-02 21:16:00,52.0,25.8,30.09,NNE,17,0.0,-999.0,36,0.00,,,0.00,0,Wunderground v.1.15,2013-04-03 01:16:00,
2013-04-02 21:22:00,51.9,27.1,30.09,NNE,17,0.0,-999.0,38,0.00,,,0.00,0,Wunderground v.1.15,2013-04-03 01:22:00,
2013-04-02 21:27:00,51.8,27.0,30.10,NNE,17,0.0,-999.0,38,0.00,,,0.00,0,Wunderground v.1.15,2013-04-03 01:27:00,
2013-04-02 21:33:00,51.7,26.9,30.10,NNE,17,0.0,-999.0,38,0.00,,,0.00,0,Wunderground v.1.15,2013-04-03 01:33:00,
2013-04-02 21:38:00,51.5,27.3,30.10,NNE,17,0.0,-999.0,39,0.00,,,0.00,0,Wunderground v.1.15,2013-04-03 01:38:00,
2013-04-02 21:44:00,51.4,27.9,30.11,NNE,17,0.0,-999.0,40,0.00,,,0.00,0,Wunderground v.1.15,2013-04-03 01:44:00,
2013-04-02 21:50:00,51.2,26.4,30.11,NNE,17,0.0,-999.0,38,0.00,,,0.00,0,Wunderground v.1.15,2013-04-03 01:50:00,
2013-04-02 21:56:00,51.0,26.3,30.10,NNE,17,0.0,-999.0,38,0.00,,,0.00,0,Wunderground v.1.15,2013-04-03 01:56:00,
2013-04-02 22:02:00,50.8,26.1,30.10,NNE,17,0.0,-999.0,38,0.00,,,0.00,0,Wunderground v.1.15,2013-04-03 02:02:00,
2013-04-02 22:07:00,50.7,25.3,30.10,NNE,17,0.0,-999.0,37,0.00,,,0.00,0,Wunderground v.1.15,2013-04-03 02:07:00,
2013-04-02 22:13:00,50.5,25.8,30.11,NNE,17,0.0,-999.0,38,0.00,,,0.00,0,Wunderground v.1.15,2013-04-03 02:13:00,
2013-04-02 22:18:00,50.3,25.6,30.11,NNE,17,0.0,-999.0,38,0.00,,,0.00,0,Wunderground v.1.15,2013-04-03 02:18:00,
2013-04-02 22:23:00,50.1,27.3,30.12,NNE,17,0.0,-999.0,41,0.00,,,0.00,0,Wunderground v.1.15,2013-04-03 02:23:00,
2013-04-02 22:29:00,49.7,26.3,30.12,NNE,17,0.0,-999.0,40,0.00,,,0.00,0,Wunderground v.1.15,2013-04-03 02:29:00,
2013-04-02 22:34:00,49.5,25.5,30.11,NNE,17,0.0,-999.0,39,0.00,,,0.00,0,Wunderground v.1.15,2013-04-03 02:34:00,
2013-04-02 22:40:00,49.2,25.3,30.11,NNE,17,0.0,-999.0,39,0.00,,,0.00,0,Wunderground v.1.15,2013-04-03 02:40:00,
2013-04-02 22:47:00,49.0,24.5,30.11,NNE,17,0.0,-999.0,38,0.00,,,0.00,0,Wunderground v.1.15,2013-04-03 02:47:00,
2013-04-02 22:53:00,48.7,24.8,30.12,NNE,17,0.0,-999.0,39,0.00,,,0.00,0,Wunderground v.1.15,2013-04-03 02:53:00,
2013-04-02 22:58:00,48.5,25.2,30.12,NNE,17,0.0,-999.0,40,0.00,,,0.00,0,Wunderground v.1.15,2013-04-03 02:58:00,
2013-04-02 23:03:00,48.3,24.5,30.12,East,85,0.0,-999.0,39,0.00,,,0.00,0,Wunderground v.1.15,2013-04-03 03:03:00,
2013-04-02 23:09:00,48.3,24.5,30.13,East,84,0.0,-999.0,39,0.00,,,0.00,0,Wunderground v.1.15,2013-04-03 03:09:00,
2013-04-02 23:15:00,48.4,24.6,30.13,NNW,346,0.0,-999.0,39,0.00,,,0.00,0,Wunderground v.1.15,2013-04-03 03:15:00,
2013-04-02 23:21:00,48.6,24.1,30.13,NE,44,0.0,-999.0,38,0.00,,,0.00,0,Wunderground v.1.15,2013-04-03 03:21:00,
2013-04-02 23:27:00,48.7,24.2,30.13,NE,44,0.0,-999.0,38,0.00,,,0.00,0,Wunderground v.1.15,2013-04-03 03:27:00,
2013-04-02 23:33:00,48.7,24.2,30.13,NE,44,0.0,-999.0,38,0.00,,,0.00,0,Wunderground v.1.15,2013-04-03 03:33:00,
2013-04-02 23:38:00,48.7,24.2,30.14,NE,44,0.0,-999.0,38,0.00,,,0.00,0,Wunderground v.1.15,2013-04-03 03:38:00,
2013-04-02 23:44:00,48.6,24.1,30.14,NE,44,0.0,-999.0,38,0.00,,,0.00,0,Wunderground v.1.15,2013-04-03 03:44:00,
2013-04-02 23:49:00,48.6,24.1,30.14,NE,44,0.0,-999.0,38,0.00,,,0.00,0,Wunderground v.1.15,2013-04-03 03:49:00,
2013-04-02 23:54:00,48.5,24.0,30.13,NE,50,0.0,-999.0,38,0.00,,,0.00,0,Wunderground v.1.15,2013-04-03 03:54:00,